Retour au catalogue

CZ-6A DEB

ActifSSO
NORAD 54518·DEBRIS·🇨🇳 China

Lancé Nov 11, 2022 depuis Taiyuan Satellite Launch Center

Loading…

Prochains Passages (prochaines 24 heures)

TLE

FraisSource: Space-Track

Époque: Sep 14, 2026, 14:00 UTC

1 54518U 22151JW  26257.58352783  .00000475  00000-0  18483-3 0  9990
2 54518  98.7663 298.0232 0125284 213.7774 145.5381 14.30255647199871

Suivez CZ-6A DEB en temps réel avec AllMySat

Download on the App Store